Weather History for Hill City, KS

Change the Weather History Date:

Thursday, February 14, 2013

  Actual Average Record
Temperature  
Mean Temperature 31 °F 32 °F  
Max Temperature 46 °F 46 °F 79 °F (1954)
Min Temperature 16 °F 19 °F -3 °F (2007)
Degree Days  
Heating Degree Days 32    
Moisture  
Dew Point 24 °F    
Average Humidity 66    
Maximum Humidity 85    
Minimum Humidity 42    
Precipitation  
Precipitation 0.00 in 0.01 in 0.05 in (2003)
Month to date precipitation 0.05 0.25  
Year to date precipitation 0.14 0.70  
Sea Level Pressure  
Sea Level Pressure 30.17 in    
Wind  
Wind Speed 9 mph (NW)    
Max Wind Speed 21 mph    
Max Gust Speed 29 mph    
Visibility 10 miles    
Events      
T = Trace of Precipitation, MM = Missing Value Source: NWS Daily Summary

Daily Weather History Graph

Daily Weather History Graph

Search for Another Location

Airport:

Trip Planner

Search our weather history database for the weather conditions in past years. The results will help you decide how hot, cold, wet, or windy it might be!

Date:

Astronomy

Feb. 14, 2013 Rise Set
Actual Time 7:32 AM CST 6:15 PM CST
Civil Twilight 7:04 AM CST 6:42 PM CST
Nautical Twilight 6:33 AM CST 7:14 PM CST
Astronomical Twilight 6:02 AM CST 7:45 PM CST
Moon 9:36 AM CST (2/14) 11:17 PM CST (2/14)
Length of Visible Light 11h 38m
Length of Day
10h 43m
Waxing Crescent, 22% of the Moon is Illuminated
Feb 14
Waxing Crescent
Feb 17
First Quarter
Feb 25
Full
Mar 4
Last Quarter
Mar 11
New

Hourly Weather History & Observations

Time (CST) Temp. Windchill Dew Point Humidity Pressure Visibility Wind Dir Wind Speed Gust Speed Precip Events Conditions
12:53 AM 32.0 °F 26.4 °F 23.0 °F 69% 29.99 in 10.0 mi WSW 5.8 mph - N/A   Partly Cloudy
1:53 AM 33.1 °F 26.9 °F 24.1 °F 70% 30.00 in 10.0 mi West 6.9 mph - N/A   Clear
2:53 AM 30.9 °F 23.5 °F 25.0 °F 79% 30.02 in 10.0 mi West 8.1 mph - N/A   Clear
3:53 AM 30.0 °F 25.2 °F 25.0 °F 82% 30.01 in 10.0 mi NW 4.6 mph - N/A   Clear
4:53 AM 33.1 °F 23.9 °F 28.0 °F 82% 30.01 in 10.0 mi NNW 12.7 mph - N/A   Clear
5:53 AM 32.0 °F 24.2 °F 27.0 °F 82% 30.04 in 10.0 mi NNW 9.2 mph - N/A   Clear
6:53 AM 30.0 °F 23.2 °F 26.1 °F 85% 30.06 in 10.0 mi WNW 6.9 mph - N/A   Clear
7:53 AM 30.9 °F 22.8 °F 26.1 °F 82% 30.09 in 10.0 mi WNW 9.2 mph - N/A   Clear
8:53 AM 34.0 °F 28.0 °F 28.0 °F 79% 30.14 in 10.0 mi West 6.9 mph - N/A   Mostly Cloudy
9:53 AM 37.9 °F 35.5 °F 28.9 °F 70% 30.14 in 10.0 mi NW 3.5 mph - N/A   Overcast
10:53 AM 39.9 °F 35.8 °F 28.9 °F 65% 30.17 in 10.0 mi West 5.8 mph - N/A   Overcast
11:53 AM 42.1 °F 37.1 °F 25.0 °F 51% 30.18 in 10.0 mi West 8.1 mph - N/A   Overcast
12:53 PM 41.0 °F 32.2 °F 30.0 °F 65% 30.19 in 10.0 mi West 18.4 mph 23.0 mph N/A   Overcast
1:53 PM 41.0 °F 34.3 °F 27.0 °F 57% 30.18 in 10.0 mi West 11.5 mph - N/A   Overcast
2:53 PM 45.0 °F 38.9 °F 26.1 °F 48% 30.18 in 10.0 mi WNW 12.7 mph 25.3 mph N/A   Mostly Cloudy
3:53 PM 44.1 °F 35.9 °F 25.0 °F 47% 30.20 in 10.0 mi NNW 19.6 mph 28.8 mph N/A   Overcast
4:53 PM 42.1 °F 33.3 °F 25.0 °F 51% 30.22 in 10.0 mi NNW 19.6 mph 25.3 mph N/A   Overcast
5:53 PM 39.0 °F 29.0 °F 19.0 °F 45% 30.26 in 10.0 mi North 20.7 mph 28.8 mph N/A   Overcast
6:53 PM 37.0 °F 28.1 °F 16.0 °F 42% 30.30 in 10.0 mi North 15.0 mph - N/A   Partly Cloudy
7:53 PM 34.0 °F 25.5 °F 16.0 °F 48% 30.33 in 10.0 mi North 11.5 mph - N/A   Clear
8:53 PM 28.9 °F 19.8 °F 16.0 °F 58% 30.36 in 10.0 mi North 10.4 mph - N/A   Clear
10:53 PM 21.9 °F 13.4 °F 15.1 °F 75% 30.40 in 10.0 mi North 6.9 mph - N/A   Clear
11:53 PM 17.1 °F 7.6 °F 12.9 °F 84% 30.40 in 10.0 mi NNW 6.9 mph - N/A   Clear